Find Starlink 35752

NORAD ID: 66275 Int'l Des: 2025-247 Owner: SPXS Country: US Constellation: starlink operational
LEOCIRCULAR

リアルタイム位置

3D地球を読み込み中...

Starlink 35752について

説明を読み込み中...

次回通過

Passes for default location (London). Set your location on the main map for personalized predictions.

高度履歴

Loading altitude history...

軌道要素

1 66275U 25247L 26107.16938557 .00020076 00000-0 68755-3 0 9995
2 66275 53.1620 12.8095 0001965 68.7416 291.3795 15.30227052 26925
Epoch: Apr 17, 2026 • Age: 10 hours

現在のステータス

高度 478.8 km
速度 7.63 km/s
衛星直下点 46.57°N, 10.86°E
打ち上げ日 Oct 31, 2025
運用期間 0.4 years
タイプ internet

技術仕様

分類 Payload
質量 575.00 kg
乾燥質量 530.00 kg
総質量 575.00 kg
長さ 0.30 m
直径 4.10 m
スパン 29.00 m
形状 Box + pan
製造者 SPXS
バスタイプ Starlink V2MO
フェーズステータス In Orbit
所有者/国 SPXS/US

Most Searched